EW8409 Weather Reports


Display with metric or nautical units.
time (UTC)temp
F
wind
direction
speed
MPH
gust
MPH
rain 1hr
in
rain 24hr
in
rain mn
in
humidity
%
barometer
mb
20260902143043 72 210 0.0 0.0 0.00 0.06 0.06 99 1014.7
20260902141539 71 102 0.0 0.0 0.00 0.06 0.06 99 1015.0
20260902140040 71 149 0.0 0.0 0.01 0.06 0.06 99 1014.9
20260902134637 71 149 0.0 0.0 0.04 0.06 0.06 99 1015.6
20260902133033 70 89 0.0 0.0 0.05 0.06 0.06 99 1015.6
20260902131534 70 234 0.0 0.0 0.06 0.06 0.06 99 1015.5
20260902130031 70 151 0.0 0.0 0.05 0.05 0.05 99 1016.0
20260902124527 69 119 0.0 0.0 0.02 0.02 0.02 99 1015.3
20260902123026 69 119 0.0 0.0 0.01 0.01 0.01 99 1014.7
20260902121524 69 119 0.0 0.0 0.00 0.00 0.00 98 1015.0
20260902120024 69 74 0.0 0.0 0.00 0.00 0.00 98 1014.0
20260902114527 69 74 0.0 0.0 0.00 0.00 0.00 98 1014.1
20260902113025 69 74 0.0 0.0 0.00 0.00 0.00 98 1013.0
20260902111531 68 74 0.0 0.0 0.00 0.00 0.00 99 1013.2
20260902110022 68 74 0.0 0.0 0.00 0.00 0.00 99 1013.2
20260902104535 68 74 0.0 0.0 0.00 0.01 0.00 98 1013.2
20260902103020 68 74 0.0 0.0 0.00 0.01 0.00 98 1013.2
20260902101519 67 74 0.0 0.0 0.00 0.01 0.00 98 1013.1
20260902100022 67 74 0.0 0.0 0.00 0.01 0.00 98 1013.2
20260902094521 67 74 0.0 0.0 0.00 0.04 0.00 98 1013.5
20260902093013 67 74 0.0 0.0 0.00 0.04 0.00 98 1013.9
20260902091512 67 74 0.0 0.0 0.00 0.04 0.00 98 1013.9
20260902090012 67 74 0.0 0.0 0.00 0.04 0.00 98 1013.9
20260902084509 67 74 0.0 0.0 0.00 0.09 0.00 98 1014.1
20260902083010 67 74 0.0 0.0 0.00 0.09 0.00 98 1014.4
20260902081515 67 74 0.0 0.0 0.00 0.09 0.00 98 1014.6
20260902080008 67 74 0.0 0.0 0.00 0.09 0.00 98 1014.4
20260902074506 68 74 0.0 0.0 0.00 0.11 0.00 98 1014.5
20260902073005 67 74 0.0 0.0 0.00 0.11 0.00 98 1014.5
20260902071508 68 74 0.0 0.0 0.00 0.11 0.00 98 1014.6
20260902070006 68 74 0.0 0.0 0.00 0.11 0.00 98 1014.7
20260902064501 68 74 0.0 0.0 0.00 0.11 0.00 98 1014.5
20260902063002 68 74 0.0 0.0 0.00 0.11 0.00 98 1014.4
20260902061622 68 74 0.0 0.0 0.00 0.11 0.00 97 1014.8
20260902054602 68 74 0.0 0.0 0.00 0.14 0.00 97 1014.7
20260902053056 68 74 0.0 0.0 0.00 0.14 0.00 97 1014.8
20260902051556 68 74 0.0 0.0 0.00 0.14 0.00 97 1014.7
20260902044549 69 74 0.0 0.0 0.00 0.14 0.00 97 1014.8
20260902043046 69 74 0.0 0.0 0.00 0.14 0.00 97 1014.7
20260902041556 69 74 0.0 0.0 0.00 0.14 0.00 97 1014.8
20260902040043 70 74 0.0 0.0 0.00 0.14 0.00 97 1014.8
20260902034545 70 74 0.0 0.0 0.00 0.14 0.14 96 1014.8
20260902033045 70 74 0.0 0.0 0.00 0.14 0.14 96 1014.7
20260902031541 70 74 0.0 0.0 0.00 0.14 0.14 96 1014.7
20260902030040 70 74 0.0 0.0 0.00 0.14 0.14 96 1014.8
20260902024542 70 74 0.0 0.0 0.00 0.14 0.14 96 1014.8
20260902023039 70 74 0.0 0.0 0.00 0.14 0.14 96 1014.8
20260902021552 70 74 0.0 0.0 0.00 0.14 0.14 96 1014.8
20260902020038 70 74 0.0 0.0 0.00 0.14 0.14 96 1014.9
20260902014540 70 312 0.0 0.0 0.00 0.00 0.14 96 1015.0
20260902013036 70 312 0.0 0.0 0.00 0.14 0.14 96 1014.9
20260902011538 70 312 0.0 0.0 0.00 0.14 0.14 96 1014.8
20260902010052 70 312 0.0 0.0 0.00 0.14 0.14 95 1014.7
20260902004540 70 312 0.0 0.0 0.00 0.15 0.14 95 1014.3
20260902003031 70 312 0.0 0.0 0.00 0.15 0.14 95 1014.0
20260902001531 71 312 0.0 0.0 0.00 0.15 0.14 94 1013.7
20260902000046 71 312 0.0 0.0 0.00 0.15 0.14 93 1013.6
20260901234555 72 312 0.0 0.0 0.00 0.15 0.14 92 1013.7
20260901233030 72 321 0.0 0.0 0.00 0.15 0.14 91 1013.6
20260901231544 73 321 0.0 0.0 0.00 0.15 0.14 90 1013.7
20260901230029 74 321 0.0 0.0 0.00 0.15 0.14 89 1013.9
20260901224532 74 321 0.0 0.0 0.00 0.16 0.14 88 1013.9
20260901223035 75 315 0.0 0.0 0.00 0.16 0.14 87 1013.9
20260901221529 76 315 0.0 0.0 0.00 0.16 0.14 85 1013.8
20260901220031 76 339 0.0 0.0 0.00 0.16 0.14 85 1013.7
20260901214523 77 352 0.0 0.0 0.00 0.16 0.14 83 1013.6
20260901213023 77 340 0.0 0.0 0.00 0.16 0.14 83 1013.6
20260901211526 77 308 0.0 0.0 0.00 0.16 0.14 84 1013.6
20260901210023 77 319 0.0 0.0 0.00 0.16 0.14 84 1013.4
20260901204524 77 18 0.0 0.0 0.00 0.22 0.14 85 1013.5
20260901203025 77 3 0.0 0.0 0.00 0.22 0.14 84 1013.9
20260901201520 77 21 0.0 0.0 0.00 0.22 0.14 82 1013.7
20260901200035 77 83 0.0 0.0 0.00 0.22 0.14 82 1013.6
20260901194522 78 43 0.0 0.0 0.00 0.35 0.14 82 1013.6
20260901193020 78 13 0.0 0.0 0.00 0.35 0.14 81 1013.6
20260901191525 77 63 0.0 0.0 0.00 0.35 0.14 82 1013.6
20260901190024 77 285 0.0 0.0 0.00 0.35 0.14 83 1013.7
20260901184520 77 311 0.0 2.0 0.00 0.59 0.14 83 1013.9
20260901183034 77 31 0.0 1.0 0.00 0.59 0.14 84 1013.7
20260901181515 77 67 0.0 0.0 0.00 0.59 0.14 85 1013.6
20260901180014 76 20 0.0 0.0 0.00 0.59 0.14 86 1013.5
20260901174514 76 25 0.0 1.0 0.00 0.64 0.14 87 1013.4
20260901173011 75 19 0.0 1.0 0.00 0.64 0.14 89 1013.3
20260901171511 75 333 0.0 1.0 0.00 0.64 0.14 91 1013.1
20260901170011 74 238 0.0 0.0 0.00 0.64 0.14 91 1013.0
20260901164510 75 337 0.0 1.0 0.00 0.69 0.14 91 1013.0
20260901163009 77 35 0.0 0.0 0.00 0.69 0.14 87 1012.9
20260901161508 78 30 0.0 0.0 0.00 0.69 0.14 89 1012.8
20260901160003 76 18 0.0 1.0 0.00 0.69 0.14 93 1012.6
20260901154601 75 187 0.0 0.0 0.00 0.77 0.14 96 1012.6
20260901153058 74 160 0.0 0.0 0.00 0.77 0.14 97 1012.7
20260901151556 74 129 0.0 0.0 0.00 0.77 0.14 98 1012.8
20260901150054 73 154 0.0 0.0 0.00 0.77 0.14 98 1012.8
20260901144551 73 27 0.0 0.0 0.00 0.86 0.14 99 1012.7